This is the latest recevied weather packets stored in our database for station/object EA6AMI-5. If no packets are shown the sender has not sent any weather packets the latest 10 day(s).
| Time | Temp. | Humidity | Pressure | Rain* | Wind** | Luminosity | Snow |
|---|---|---|---|---|---|---|---|
| 1777791243 | 16.67° C | 75% | 1016.4 hPa | 0 mm | - | 54 W/m² | - |
| 1777790704 | 16.11° C | 75% | 1016.4 hPa | 0 mm | - | 105 W/m² | - |
| 1777790163 | 16.11° C | 75% | 1016.4 hPa | 0 mm | - | 54 W/m² | - |
| 1777789623 | 16.11° C | 75% | 1016.5 hPa | 0 mm | - | 52 W/m² | - |
| 1777789084 | 16.11° C | 76% | 1016.6 hPa | 0 mm | - | 43 W/m² | - |
| 1777788543 | 15.56° C | 76% | 1015.9 hPa | 0 mm | - | 59 W/m² | - |
| 1777788003 | 15.56° C | 76% | 1016.2 hPa | 0 mm | - | 50 W/m² | - |
| 1777787643 | 15° C | 74% | 1016.2 hPa | 0 mm | - | 34 W/m² | - |
| 1777787103 | 15° C | 73% | 1016.2 hPa | 0 mm | - | 23 W/m² | - |
| 1777786563 | 14.44° C | 73% | 1016.2 hPa | 0 mm | - | 28 W/m² | - |
| 1777786024 | 14.44° C | 74% | 1016 hPa | 0 mm | - | 28 W/m² | - |
| 1777785483 | 14.44° C | 73% | 1016.3 hPa | 0 mm | - | 22 W/m² | - |
| 1777784944 | 14.44° C | 73% | 1016.3 hPa | 0 mm | - | 15 W/m² | - |
| 1777784403 | 14.44° C | 73% | 1016.4 hPa | 0 mm | - | 8 W/m² | - |
| 1777784043 | 13.89° C | 72% | 1016.5 hPa | 0 mm | - | 5 W/m² | - |
| 1777783503 | 14.44° C | 71% | 1016.6 hPa | 0 mm | - | 1 W/m² | - |
| 1777782964 | 14.44° C | 72% | 1016.1 hPa | 0 mm | - | 0 W/m² | - |
| 1777782423 | 13.89° C | 73% | 1016 hPa | 0 mm | - | 0 W/m² | - |
| 1777781883 | 13.89° C | 72% | 1016.2 hPa | 0 mm | - | 0 W/m² | - |
| 1777781343 | 13.89° C | 72% | 1016.3 hPa | 0 mm | - | 0 W/m² | - |
| 1777780803 | 13.89° C | 73% | 1016.1 hPa | 0 mm | - | 0 W/m² | - |
| 1777780443 | 13.89° C | 74% | 1015.9 hPa | 0 mm | - | 0 W/m² | - |
| 1777779904 | 13.89° C | 75% | 1016 hPa | 0 mm | - | 0 W/m² | - |
| 1777779363 | 13.89° C | 74% | 1016.1 hPa | 0 mm | - | 0 W/m² | - |
| 1777778824 | 13.89° C | 74% | 1016.1 hPa | 0 mm | - | 0 W/m² | - |
* Rain latest hour (hover to see other rain measurements)
** Current wind speed in m/s (hover to see current wind gust speed)